Weather History for KDMW - October, 2012

Change the Weather History Date:

Tuesday, October 9, 2012

  Actual Average (KTHV) Record (KTHV)
Temperature  
Mean Temperature 50 °F -  
Max Temperature 57 °F 0 °F 89 °F (2007)
Min Temperature 42 °F - 21 °F (2001)
Degree Days  
Heating Degree Days 16    
Moisture  
Dew Point 44 °F    
Average Humidity 79    
Maximum Humidity 88    
Minimum Humidity 67    
Precipitation  
Precipitation 0.00 in - - ()
Sea Level Pressure  
Sea Level Pressure 30.16 in    
Wind  
Wind Speed 2 mph (NNE)    
Max Wind Speed 9 mph    
Max Gust Speed -    
Visibility 9 miles    
Events Rain    
Averages and records for this station are not official NWS values.
T = Trace of Precipitation, MM = Missing Value Source: NWS Daily Summary

Daily Weather History Graph

Daily Weather History Graph

Search for Another Location

Airport or City:

Trip Planner

Search our weather history database for the weather conditions in past years. The results will help you decide how hot, cold, wet, or windy it might be!

Date:

Astronomy

Oct. 09, 2012 Rise Set
Actual Time 7:12 AM EDT 6:37 PM EDT
Civil Twilight 6:45 AM EDT 7:04 PM EDT
Nautical Twilight 6:14 AM EDT 7:35 PM EDT
Astronomical Twilight 5:43 AM EDT 8:06 PM EDT
Moon 12:48 AM EDT (10/9) 3:02 PM EDT (10/9)
Length of Visible Light 12h 18m
Length of Day
11h 24m
Last Quarter, 37% of the Moon is Illuminated
Oct 9
Last Quarter
Oct 15
New
Oct 21
First Quarter
Oct 29
Full
Nov 6
Last Quarter

Hourly Weather History & Observations

Time (EDT) Temp. Windchill Dew Point Humidity Pressure Visibility Wind Dir Wind Speed Gust Speed Precip Events Conditions
12:10 AM 42.8 °F 41.1 °F 39.2 °F 87% 30.23 in 10.0 mi North 3.5 mph - N/A   Overcast
12:52 AM 44.6 °F 42.2 °F 39.2 °F 81% 30.21 in 10.0 mi NNE 4.6 mph - N/A   Overcast
1:13 AM 44.6 °F 43.1 °F 39.2 °F 81% 30.21 in 10.0 mi NNE 3.5 mph - N/A   Light Drizzle
1:34 AM 44.6 °F 43.1 °F 39.2 °F 81% 30.22 in 10.0 mi North 3.5 mph - N/A   Overcast
1:52 AM 44.6 °F - 39.2 °F 81% 30.22 in 10.0 mi Calm Calm - N/A   Overcast
2:16 AM 44.6 °F - 39.2 °F 81% 30.22 in 10.0 mi Calm Calm - N/A   Overcast
2:37 AM 44.6 °F - 39.2 °F 81% 30.22 in 10.0 mi Calm Calm - N/A   Light Drizzle
3:01 AM 44.6 °F 43.1 °F 39.2 °F 81% 30.20 in 10.0 mi NNE 3.5 mph - N/A   Overcast
3:22 AM 44.6 °F - 39.2 °F 81% 30.19 in 10.0 mi Calm Calm - N/A   Overcast
4:04 AM 44.6 °F 43.1 °F 39.2 °F 81% 30.20 in 10.0 mi North 3.5 mph - N/A   Overcast
4:25 AM 44.6 °F - 39.2 °F 81% 30.20 in 10.0 mi Calm Calm - N/A   Overcast
4:46 AM 44.6 °F - 39.2 °F 81% 30.20 in 10.0 mi Calm Calm - N/A   Drizzle
5:28 AM 44.6 °F - 39.2 °F 81% 30.20 in 10.0 mi Calm Calm - N/A   Overcast
5:49 AM 44.6 °F - 39.2 °F 81% 30.20 in 10.0 mi Calm Calm - N/A   Overcast
6:13 AM 44.6 °F - 41.0 °F 87% 30.20 in 10.0 mi Calm Calm - N/A   Overcast
6:34 AM 44.6 °F - 39.2 °F 81% 30.20 in 7.0 mi Calm Calm - N/A   Overcast
6:55 AM 44.6 °F 43.1 °F 39.2 °F 81% 30.20 in 10.0 mi North 3.5 mph - N/A   Overcast
7:16 AM 44.6 °F - 39.2 °F 81% 30.19 in 7.0 mi Calm Calm - N/A   Overcast
7:37 AM 42.8 °F - 39.2 °F 87% 30.19 in 7.0 mi Calm Calm - N/A   Scattered Clouds
7:58 AM 44.6 °F - 39.2 °F 81% 30.20 in 7.0 mi Calm Calm - N/A   Mostly Cloudy
8:19 AM 44.6 °F 42.2 °F 41.0 °F 87% 30.21 in 7.0 mi NW 4.6 mph - N/A   Overcast
8:40 AM 44.6 °F 43.1 °F 41.0 °F 87% 30.21 in 7.0 mi North 3.5 mph - N/A   Overcast
9:01 AM 46.4 °F 44.3 °F 42.8 °F 87% 30.21 in 7.0 mi NNW 4.6 mph - N/A   Overcast
9:22 AM 46.4 °F - 42.8 °F 87% 30.21 in 7.0 mi Calm Calm - N/A   Overcast
9:43 AM 46.4 °F 45.2 °F 42.8 °F 87% 30.21 in 7.0 mi North 3.5 mph - N/A   Overcast
10:04 AM 48.2 °F - 42.8 °F 82% 30.21 in 10.0 mi North 3.5 mph - N/A   Overcast
10:28 AM 48.2 °F - 42.8 °F 82% 30.20 in 10.0 mi North 3.5 mph - N/A   Overcast
10:49 AM 50.0 °F - 44.6 °F 82% 30.20 in 10.0 mi NE 4.6 mph - N/A   Overcast
11:10 AM 51.8 °F - 44.6 °F 76% 30.20 in 10.0 mi Calm Calm - N/A   Overcast
11:31 AM 51.8 °F - 44.6 °F 76% 30.20 in 10.0 mi NE 5.8 mph - N/A   Overcast
11:52 AM 53.6 °F - 44.6 °F 72% 30.19 in 10.0 mi ENE 4.6 mph - N/A   Overcast
12:13 PM 53.6 °F - 44.6 °F 72% 30.18 in 10.0 mi NE 5.8 mph - N/A   Overcast
12:34 PM 55.4 °F - 44.6 °F 67% 30.17 in 10.0 mi NNE 8.1 mph - N/A   Overcast
12:52 PM 55.4 °F - 44.6 °F 67% 30.16 in 10.0 mi ENE 9.2 mph - N/A   Overcast
1:16 PM 55.4 °F - 46.4 °F 72% 30.15 in 10.0 mi ENE 6.9 mph - N/A   Overcast
1:37 PM 55.4 °F - 46.4 °F 72% 30.15 in 10.0 mi NE 4.6 mph - N/A   Overcast
1:58 PM 55.4 °F - 46.4 °F 72% 30.14 in 10.0 mi Calm Calm - N/A   Overcast
2:22 PM 57.2 °F - 46.4 °F 67% 30.13 in 10.0 mi Calm Calm - N/A   Overcast
2:43 PM 57.2 °F - 46.4 °F 67% 30.13 in 10.0 mi ENE 4.6 mph - N/A   Overcast
3:04 PM 57.2 °F - 46.4 °F 67% 30.13 in 10.0 mi NE 5.8 mph - N/A   Overcast
3:22 PM 57.2 °F - 46.4 °F 67% 30.13 in 10.0 mi Calm Calm - N/A   Overcast
3:46 PM 57.2 °F - 46.4 °F 67% 30.12 in 10.0 mi Calm Calm - N/A   Overcast
4:07 PM 57.2 °F - 46.4 °F 67% 30.12 in 10.0 mi Calm Calm - N/A   Overcast
4:28 PM 57.2 °F - 46.4 °F 67% 30.12 in 10.0 mi NNE 3.5 mph - N/A   Overcast
4:49 PM 57.2 °F - 46.4 °F 67% 30.12 in 10.0 mi NE 4.6 mph - N/A   Overcast
5:52 PM 55.4 °F - 48.2 °F 77% 30.11 in 10.0 mi Calm Calm - N/A   Overcast
6:13 PM 57.2 °F - 46.4 °F 67% 30.11 in 10.0 mi Calm Calm - N/A   Overcast
6:58 PM 55.4 °F - 48.2 °F 77% 30.11 in 10.0 mi Calm Calm - N/A   Overcast
7:19 PM 55.4 °F - 48.2 °F 77% 30.11 in 10.0 mi Calm Calm - N/A   Overcast
7:40 PM 53.6 °F - 48.2 °F 82% 30.11 in 10.0 mi Calm Calm - N/A   Overcast
8:01 PM 53.6 °F - 48.2 °F 82% 30.11 in 10.0 mi Calm Calm - N/A   Overcast
8:22 PM 53.6 °F - 48.2 °F 82% 30.11 in 10.0 mi ENE 3.5 mph - N/A   Overcast
8:43 PM 53.6 °F - 48.2 °F 82% 30.10 in 10.0 mi Calm Calm - N/A   Overcast
9:04 PM 53.6 °F - 48.2 °F 82% 30.10 in 10.0 mi Calm Calm - N/A   Overcast
9:46 PM 53.6 °F - 48.2 °F 82% 30.10 in 10.0 mi Calm Calm - N/A   Overcast
10:07 PM 53.6 °F - 48.2 °F 82% 30.10 in 10.0 mi Calm Calm - N/A   Overcast
10:28 PM 53.6 °F - 48.2 °F 82% 30.09 in 10.0 mi Calm Calm - N/A   Overcast
10:52 PM 53.6 °F - 48.2 °F 82% 30.09 in 3.0 mi Calm Calm - N/A   Overcast
11:13 PM 53.6 °F - 50.0 °F 88% 30.08 in 3.0 mi Calm Calm - N/A   Overcast
11:52 PM 53.6 °F - 50.0 °F 88% 30.08 in 2.0 mi Calm Calm - N/A Rain Light Rain